TimeMDT,TemperatureF,Dew PointF,Humidity,Sea Level PressureIn,VisibilityMPH,Wind Direction,Wind SpeedMPH,Gust SpeedMPH,PrecipitationIn,Events,Conditions,WindDirDegrees,DateUTC
12:28 AM,60.1,60.1,100,30.32,0.5,ENE,28.8,33.4,0.07,Fog-Rain,Rain,60,2013-07-18 06:28:00
12:35 AM,61.0,61.0,100,30.32,0.2,ENE,26.5,-,0.08,Fog-Rain,Light Rain,60,2013-07-18 06:35:00
12:51 AM,61.0,61.0,100,30.17,0.2,NE,26.5,-,0.11,Fog-Rain,Rain,50,2013-07-18 06:51:00
1:51 AM,60.1,60.1,100,30.17,0.2,ENE,24.2,-,0.16,Fog-Rain,Rain,60,2013-07-18 07:51:00
2:51 AM,60.1,60.1,100,30.16,0.2,NE,20.7,25.3,0.11,Fog-Rain,Heavy Rain,50,2013-07-18 08:51:00
3:49 AM,60.8,60.8,100,30.28,0.8,NE,25.3,-,0.08,Rain,Light Rain,50,2013-07-18 09:49:00
3:51 AM,60.1,60.1,100,30.12,0.8,NE,25.3,-,0.08,,Mist,50,2013-07-18 09:51:00
4:17 AM,60.1,60.1,100,30.28,0.2,ENE,21.9,-,N/A,Fog,Fog,60,2013-07-18 10:17:00
4:51 AM,60.1,60.1,100,30.10,0.2,ENE,27.6,-,0.00,Fog-Rain,Light Rain,70,2013-07-18 10:51:00
5:51 AM,60.1,60.1,100,30.11,0.2,NE,27.6,-,0.01,Fog-Rain,Light Rain,50,2013-07-18 11:51:00
6:51 AM,60.1,-9999,N/A,30.13,0.2,ENE,24.2,-,0.01,Rain,Light Rain,70,2013-07-18 12:51:00
7:09 AM,61.0,-9999,N/A,30.29,0.2,ENE,19.6,-,0.00,Rain,Light Rain,60,2013-07-18 13:09:00
7:33 AM,61.0,61.0,100,30.30,0.2,ENE,18.4,-,0.01,Fog-Rain,Light Rain,60,2013-07-18 13:33:00
7:51 AM,61.0,61.0,100,30.13,0.2,ENE,21.9,-,0.01,Fog-Rain,Light Rain,60,2013-07-18 13:51:00
8:51 AM,61.0,61.0,100,30.15,0.2,East,21.9,-,0.07,Fog,Fog,80,2013-07-18 14:51:00
9:51 AM,61.0,61.0,100,30.15,0.2,East,23.0,-,0.03,Fog-Rain,Light Rain,90,2013-07-18 15:51:00
10:51 AM,61.0,61.0,100,30.13,0.2,East,29.9,-,0.02,Fog,Fog,80,2013-07-18 16:51:00
11:23 AM,62.1,62.1,100,30.30,0.8,East,26.5,-,0.00,Rain,Light Rain,80,2013-07-18 17:23:00
11:51 AM,62.1,62.1,100,30.13,1.2,East,27.6,-,0.00,Rain,Light Rain,80,2013-07-18 17:51:00
12:14 PM,63.0,63.0,100,30.29,1.0,East,26.5,-,0.00,Rain,Light Rain,80,2013-07-18 18:14:00
12:20 PM,62.1,62.1,100,30.29,0.2,East,26.5,-,0.00,Fog-Rain,Light Rain,80,2013-07-18 18:20:00
12:34 PM,63.0,63.0,100,30.28,1.2,East,27.6,-,0.00,,Overcast,80,2013-07-18 18:34:00
12:37 PM,63.0,63.0,100,30.28,4.0,East,28.8,-,0.00,,Overcast,80,2013-07-18 18:37:00
1:31 PM,63.0,62.1,97,30.27,8.0,ENE,25.3,-,0.00,,Overcast,70,2013-07-18 19:31:00
1:51 PM,64.0,62.1,93,30.10,7.0,ENE,21.9,-,0.00,,Mostly Cloudy,70,2013-07-18 19:51:00
1:59 PM,64.0,62.1,93,30.27,6.0,ENE,21.9,-,0.00,Rain,Light Rain,70,2013-07-18 19:59:00